Location: Tarleton Observatory
(32.2162°N, 98.0976°W)
Time: 14:22:40
(UTC-05:00)

Daily predictions for brighter satellites

Satellite Brightness Start Highest point End
(mag) Time Altitude Azimuth Time Altitude Azimuth Time Altitude Azimuth
Cosmos 494 Rocket 4.2 20:23:20 10° N 20:28:27 55° ENE 20:33:34 10° SSE
Cosmos 2074 Rocket 4.1 20:26:41 10° S 20:32:59 89° W 20:39:18 10° N
GPS 2-05 Rocket1 3.4 20:30:47 10° W 20:34:02 46° SSW 20:37:17 10° SE
FREGAT/IRIS 2.4 20:33:03 10° SSE 20:35:59 78° ENE 20:38:56 10° N
Cosmos 2333 Rocket 2.4 20:31:17 10° S 20:36:40 47° ESE 20:42:04 10° NNE
ERS-2 3.2 20:35:33 10° SE 20:38:38 26° ENE 20:41:44 10° NNE
Cosmos 1455 3.3 20:36:21 10° SE 20:39:25 24° E 20:42:32 10° NE
CZ-2D R/B 3.7 20:36:04 10° SE 20:39:39 41° ENE 20:43:15 10° N
Cosmos 1610 Rocket 4.5 20:34:01 10° S 20:40:04 67° E 20:46:10 10° NNE
USA 186 3.1 20:40:40 11° E 20:41:20 12° ENE 20:42:13 10° NE
COSMOS 2428 2.8 20:36:03 10° SSW 20:41:47 85° WNW 20:47:32 10° NNE
Cosmos 2333 4.4 20:37:43 10° SSW 20:43:23 78° WNW 20:49:01 10° NNE
Sich 1 3.6 20:40:12 10° NNE 20:44:07 35° E 20:48:01 10° SSE
Cosmos 1809 Rocket 4.5 20:38:24 10° S 20:44:27 65° E 20:50:34 10° NNE
Cosmos 1844 Rocket 3.1 20:39:35 10° N 20:45:00 45° ENE 20:50:22 10° SE
Cosmos 2263 Rocket 4.2 20:42:48 10° NW 20:47:38 30° WSW 20:52:27 10° SSW
Envisat 3.1 20:44:05 10° SSE 20:49:04 59° ENE 20:54:03 10° N
Cosmos 2219 Rocket 2.1 20:45:29 10° SSW 20:51:07 78° ESE 20:56:47 10° NNE
YAOGAN 6 3.7 20:48:32 12° SE 20:51:17 26° ENE 20:54:22 10° NNE
Cosmos 1892 3.5 20:48:18 10° NNE 20:51:49 32° E 20:55:08 11° SE
Cosmos 1844 4.3 20:46:30 10° N 20:51:50 39° ENE 20:56:42 12° SE
Meteor 2-2 Rocket 4.3 20:46:40 10° S 20:52:23 65° E 20:58:15 10° NNE
Cosmos 2251 Rocket 3.8 20:47:59 10° N 20:53:13 51° ENE 20:58:24 10° SSE
Cosmos 2237 Rocket 2.7 20:48:15 10° SSE 20:53:17 35° ESE 20:58:20 10° NE
Meteor 2-14 Rocket 4.4 20:54:51 10° S 21:00:51 65° E 21:06:53 10° NNE
Cosmos 1633 Rocket 3.3 21:01:59 10° N 21:06:11 47° E 21:09:49 13° SSE
Cosmos 2278 Rocket 3.5 21:03:04 10° N 21:07:25 22° ENE 21:09:51 17° E
Nadezhda 3 Rocket 4.0 21:02:35 10° N 21:08:53 67° E 21:15:12 10° SSE
Meteor 2-16 Rocket 4.4 21:04:53 10° S 21:10:56 64° E 21:16:59 10° NNE
Cosmos 1340 4.0 21:07:58 10° SSW 21:11:35 43° W 21:15:13 10° N
Meteor 2-15 Rocket 4.4 21:06:12 10° N 21:12:20 70° E 21:18:24 10° SSE
Cosmos 1515 Rocket 4.0 21:08:22 10° SSE 21:12:31 40° E 21:16:41 10° NNE
Cosmos 2228 Rocket 3.3 21:13:25 10° SSE 21:17:36 45° E 21:21:47 10° NNE
Sakura Rocket 3.2 21:14:38 10° WSW 21:19:26 52° S 21:21:08 30° ESE
Thor Agena Rocket 4.1 21:19:35 10° N 21:24:46 62° WNW 21:29:58 10° SSW
ASTRO E2 3.2 21:21:27 10° SW 21:25:14 40° SSE 21:26:03 35° SE
SL-24 R/B - RUBIN 2 3.5 21:22:00 10° NNW 21:26:20 81° WSW 21:28:55 24° SSE
Cosmos 1825 3.5 21:27:09 10° NNE 21:29:46 24° ENE 21:29:46 24° ENE
Cosmos 1328 Rocket 3.7 21:26:50 10° S 21:31:13 76° W 21:35:39 10° N
OAO 2 Rocket 3.3 21:26:08 10° WNW 21:31:22 89° S 21:33:39 34° ESE
Spot 2 Rocket 3.6 21:29:14 26° SE 21:31:55 57° ENE 21:36:54 10° N
ATLAS CENTAUR R/B 3.1 21:30:07 10° WSW 21:33:22 31° WNW 21:36:42 10° N
ATLAS 2AS CENTAUR R/B 3.1 21:28:25 10° NNW 21:36:05 58° ENE 21:39:43 30° ESE
Resurs 01 Rocket 1.7 21:39:36 24° S 21:42:13 80° W 21:46:40 10° NNW
SL-16 R/B 2.6 21:43:10 37° ESE 21:43:27 37° ESE 21:48:37 10° NE
Cosmos 2344 4.0 21:40:01 10° S 21:46:55 35° ESE 21:53:46 10° NE
ARGOS 3.9 21:48:17 32° ENE 21:48:36 32° ENE 21:53:18 10° N
Cosmos 1470 Rocket 3.4 21:44:59 10° N 21:49:25 79° E 21:50:30 50° SSE
OAO 3 Copernicus 4.1 21:45:25 10° WSW 21:50:26 77° SSE 21:51:49 48° E
Cosmos 1959 Rocket 4.3 21:45:47 15° S 21:50:59 72° E 21:57:05 10° N
Cosmos 1939 Rocket 3.7 21:49:00 22° SSW 21:51:11 45° W 21:54:56 10° NNW
Cosmos 1869 3.2 21:55:17 74° ENE 21:55:17 74° ENE 21:59:11 10° N
Cosmos 1727 Rocket 4.4 21:52:02 10° N 21:57:48 40° E 21:58:14 40° E
Meteor 2-3 Rocket 4.1 21:53:02 10° NNW 21:58:35 62° W 22:02:32 20° S
deb Centaur AC-2 4.3 21:57:55 10° W 22:02:12 54° SSW 22:02:12 54° SSW
Meteor 2-10 Rocket 3.6 22:01:52 45° SSE 22:03:34 69° E 22:09:19 10° NNE
ATLAS 3B CENTAUR R/B 4.4 21:56:23 10° W 22:04:56 21° SW 22:08:39 14° SSW
Cosmos 2218 Rocket 4.1 22:02:37 12° S 22:08:27 80° W 22:14:52 10° N
ERS-1 Rocket 4.0 22:10:08 31° NE 22:10:08 31° NE 22:13:38 10° N
SL-08 R/B 4.4 22:08:43 32° S 22:11:51 85° E 22:18:17 10° N
Cosmos 1408 3.4 22:09:42 10° NNW 22:12:37 49° NW 22:12:37 49° NW
Cosmos 407 Rocket 4.4 22:10:48 10° N 22:14:31 33° NE 22:14:31 33° NE
H-2A R/B 2.7 22:17:10 40° NE 22:17:10 40° NE 22:20:57 10° N
USA 267 3.1 22:11:26 10° NE 22:17:55 62° SE 22:24:21 10° SSW
Cosmos 1933 Rocket 4.0 22:13:41 10° NNW 22:17:57 55° W 22:18:15 54° WSW
Cosmos 2366 rocket 4.1 22:15:37 21° SSW 22:19:52 72° W 22:26:08 10° N
MetOp-A 4.1 22:32:42 77° N 22:32:42 77° N 22:37:41 10° NNW
Cosmos 2237 Rocket 4.3 22:32:46 10° WSW 22:37:20 25° WNW 22:41:56 10° N
Cosmos 1339 Rocket 4.5 22:35:49 10° N 22:41:54 72° W 22:42:24 68° SW
Terra 4.3 22:48:17 13° NNE 22:48:17 13° NNE 22:48:55 10° NNE
Cosmos 2278 Rocket 3.1 22:46:18 10° NW 22:51:36 42° WSW 22:51:44 42° WSW
ATLAS 2AS CENTAUR R/B 4.3 23:20:38 10° NW 23:26:24 24° WSW 23:27:11 24° WSW
SL-16 R/B 4.2 23:24:48 17° W 23:27:36 24° WNW 23:32:09 10° N
ATLAS 2A CENTAUR R/B 4.2 23:34:26 10° WSW 23:44:51 41° SW 23:44:51 41° SW
